Date String (YYYY-MM-DD hh:mm:ss) UTC,Instrument flags,Ambient pressure (hPa),Sample flow (lpm),Bypass flow (lpm),Sample temperature (°C),Ambient temperature (°C),ASC tube jacket temperature (°C),LED temperature (°C),Box temperature (°C),Sample RH (%),Span deviation,Mass concentration (μg/m³),Mass concentration (μg/m³),Mass concentration (μg/m³)
DateTimeUTC,F1_M11,P_M11,Q1_M11,Q2_M11,T1_M11,T2_M11,T3_M11,T4_M11,T5_M11,U1_M11,ZSPAN_M11,X0_M11,X2_M11,X1_M11
2023-01-26 15:00:00,,0828.8,4.99,0.00,21.7,20.4,00.0,30.5,23.2,05.1,0000.0,0003.39,0001.23,0001.02
2023-01-26 15:01:00,,0829.0,5.00,0.00,21.6,19.9,00.0,30.5,23.1,05.3,0000.0,0003.62,0001.23,0001.01
2023-01-26 15:02:00,,0829.4,4.98,0.00,21.5,19.6,00.0,30.4,23.0,05.4,0000.0,0003.54,0001.21,0001.01
2023-01-26 15:03:00,,0829.4,5.00,0.00,21.5,19.4,00.0,30.4,22.9,05.6,0000.0,0002.98,0001.22,0001.00
2023-01-26 15:04:00,,0829.3,5.01,0.00,21.4,19.4,00.0,30.4,22.9,05.6,0000.0,0002.95,0001.21,0001.00
2023-01-26 15:05:00,,0829.4,5.01,0.00,21.5,20.7,00.0,30.4,23.1,05.6,0000.0,0002.88,0001.19,0001.00
2023-01-26 15:06:00,,0828.9,5.01,0.00,21.6,22.0,00.0,30.4,23.4,05.7,0000.0,0002.80,0001.17,0001.00
2023-01-26 15:07:00,,0829.0,4.98,0.00,21.7,21.9,00.0,30.4,23.5,05.5,0000.0,0002.78,0001.17,0001.00
2023-01-26 15:08:00,,0828.8,5.00,0.00,21.7,21.2,00.0,30.4,23.4,05.5,0000.0,0002.73,0001.17,0001.00
2023-01-26 15:09:00,,0828.8,5.00,0.00,21.6,20.5,00.0,30.5,23.2,05.4,0000.0,0002.74,0001.18,0001.01
2023-01-26 15:10:00,,0828.8,5.01,0.00,21.6,19.9,00.0,30.4,23.0,05.3,0000.0,0002.74,0001.17,0001.01
2023-01-26 15:11:00,,0828.8,5.02,0.00,21.5,19.5,00.0,30.4,22.9,05.4,0000.0,0002.10,0001.17,0001.01
2023-01-26 15:12:00,,0829.1,5.01,0.00,21.4,19.2,00.0,30.4,22.9,05.4,0000.0,0002.80,0001.25,0001.02
2023-01-26 15:13:00,,0829.0,5.01,0.00,21.4,19.2,00.0,30.4,22.8,05.5,0000.0,0003.01,0001.30,0001.02
2023-01-26 15:14:00,,0828.7,5.00,0.00,21.4,20.5,00.0,30.3,23.0,05.6,0000.0,0003.23,0001.36,0001.01
2023-01-26 15:15:00,,0828.8,4.99,0.00,21.6,22.0,00.0,30.3,23.4,05.6,0000.0,0003.44,0001.43,0001.02
2023-01-26 15:16:00,,0829.2,4.99,0.00,21.7,22.0,00.0,30.4,23.5,05.6,0000.0,0003.59,0001.46,0001.02
2023-01-26 15:17:00,,0828.8,5.00,0.00,21.7,21.2,00.0,30.4,23.3,05.4,0000.0,0003.61,0001.48,0001.02
2023-01-26 15:18:00,,0828.6,4.99,0.00,21.6,20.7,00.0,30.4,23.2,05.3,0000.0,0003.57,0001.46,0001.01
2023-01-26 15:19:00,,0829.0,5.01,0.00,21.6,20.2,00.0,30.4,23.1,05.3,0000.0,0003.67,0001.43,0001.00
2023-01-26 15:20:00,,0828.7,4.98,0.00,21.5,19.7,00.0,30.4,23.0,05.3,0000.0,0003.75,0001.44,0000.99
2023-01-26 15:21:00,,0828.6,5.01,0.00,21.4,19.3,00.0,30.4,22.9,05.3,0000.0,0003.74,0001.43,0000.99
2023-01-26 15:22:00,,0828.8,5.00,0.00,21.4,19.1,00.0,30.3,22.7,05.2,0000.0,0003.70,0001.41,0000.99
2023-01-26 15:23:00,,0828.6,5.01,0.00,21.3,19.4,00.0,30.3,22.7,05.6,0000.0,0002.75,0001.33,0000.97
2023-01-26 15:24:00,,0828.7,5.01,0.00,21.4,21.2,00.0,30.3,23.1,05.4,0000.0,0002.24,0001.25,0000.97
2023-01-26 15:25:00,,0829.0,5.00,0.00,21.6,22.2,00.0,30.3,23.4,05.3,0000.0,0001.98,0001.17,0000.96
2023-01-26 15:26:00,,0829.1,5.00,0.00,21.6,21.8,00.0,30.3,23.5,05.4,0000.0,0001.77,0001.09,0000.96
2023-01-26 15:27:00,,0829.0,5.01,0.00,21.6,21.2,00.0,30.4,23.3,05.2,0000.0,0001.65,0001.06,0000.95
2023-01-26 15:28:00,,0828.9,4.99,0.00,21.6,20.6,00.0,30.4,23.2,05.3,0000.0,0001.64,0001.05,0000.94
2023-01-26 15:29:00,,0828.5,5.00,0.00,21.5,20.0,00.0,30.4,23.1,05.2,0000.0,0001.64,0001.05,0000.94
2023-01-26 15:30:00,,0828.9,5.00,0.00,21.5,19.8,00.0,30.3,23.0,05.3,0000.0,0001.73,0001.08,0000.95
2023-01-26 15:31:00,,0828.9,5.02,0.00,21.5,19.7,00.0,30.3,23.0,05.4,0000.0,0001.66,0001.08,0000.95
2023-01-26 15:32:00,,0828.9,4.98,0.00,21.4,19.6,00.0,30.3,23.0,05.6,0000.0,0001.73,0001.11,0000.94
2023-01-26 15:33:00,,0828.8,5.00,0.00,21.4,19.3,00.0,30.3,22.9,05.5,0000.0,0001.85,0001.16,0000.94
2023-01-26 15:34:00,,0828.8,5.01,0.00,21.3,19.4,00.0,30.3,22.8,05.6,0000.0,0001.85,0001.16,0000.95
2023-01-26 15:35:00,,0828.5,5.01,0.00,21.4,21.0,00.0,30.3,23.1,05.4,0000.0,0001.85,0001.16,0000.94
2023-01-26 15:36:00,,0828.5,5.00,0.00,21.6,22.2,00.0,30.3,23.4,05.3,0000.0,0001.87,0001.17,0000.95
2023-01-26 15:37:00,,0828.4,4.98,0.00,21.6,21.8,00.0,30.3,23.4,05.4,0000.0,0001.87,0001.17,0000.94
2023-01-26 15:38:00,,0828.4,5.02,0.00,21.6,21.0,00.0,30.3,23.3,05.4,0000.0,0001.82,0001.15,0000.94
2023-01-26 15:39:00,,0828.4,5.00,0.00,21.6,20.3,00.0,30.3,23.1,05.6,0000.0,0001.95,0001.19,0000.94
2023-01-26 15:40:00,,0828.4,4.98,0.00,21.5,19.7,00.0,30.3,22.9,05.5,0000.0,0002.13,0001.24,0000.95
2023-01-26 15:41:00,,0828.4,5.00,0.00,21.4,19.3,00.0,30.3,22.8,05.4,0000.0,0002.09,0001.24,0000.95
2023-01-26 15:42:00,,0828.4,5.02,0.00,21.3,19.1,00.0,30.3,22.6,05.7,0000.0,0002.01,0001.23,0000.96
2023-01-26 15:43:00,,0828.3,5.01,0.00,21.3,18.9,00.0,30.3,22.6,05.8,0000.0,0001.98,0001.21,0000.97
2023-01-26 15:44:00,,0828.3,5.01,0.00,21.2,19.6,00.0,30.2,22.7,05.8,0000.0,0002.09,0001.19,0000.97
2023-01-26 15:45:00,,0828.3,4.99,0.00,21.4,21.4,00.0,30.2,23.1,05.7,0000.0,0002.10,0001.20,0000.98
2023-01-26 15:46:00,,0828.3,4.99,0.00,21.5,22.1,00.0,30.2,23.4,05.4,0000.0,0002.13,0001.21,0000.98
2023-01-26 15:47:00,,0828.4,4.99,0.00,21.5,21.5,00.0,30.3,23.3,05.8,0000.0,0002.22,0001.24,0000.99
2023-01-26 15:48:00,,0828.3,5.01,0.00,21.5,20.9,00.0,30.3,23.2,05.9,0000.0,0002.24,0001.26,0001.00
2023-01-26 15:49:00,,0828.3,5.00,0.00,21.5,20.5,00.0,30.3,23.1,06.1,0000.0,0002.28,0001.27,0000.99
2023-01-26 15:50:00,,0828.3,5.00,0.00,21.5,20.1,00.0,30.3,23.0,06.0,0000.0,0002.22,0001.26,0000.99
2023-01-26 15:51:00,,0828.3,5.01,0.00,21.4,19.7,00.0,30.3,22.9,05.8,0000.0,0002.07,0001.22,0000.98
2023-01-26 15:52:00,,0828.3,5.00,0.00,21.4,19.4,00.0,30.3,22.8,05.4,0000.0,0001.94,0001.20,0000.98
2023-01-26 15:53:00,,0828.3,5.03,0.00,21.3,19.2,00.0,30.2,22.7,05.0,0000.0,0001.89,0001.17,0000.95
2023-01-26 15:54:00,,0828.3,5.00,0.00,21.3,19.1,00.0,30.2,22.7,05.6,0000.0,0001.85,0001.14,0000.92
2023-01-26 15:55:00,,0828.3,5.00,0.00,21.3,20.5,00.0,30.2,22.9,05.7,0000.0,0001.72,0001.12,0000.91
2023-01-26 15:56:00,,0828.3,5.00,0.00,21.5,22.2,00.0,30.2,23.3,05.9,0000.0,0001.68,0001.10,0000.90
2023-01-26 15:57:00,,0828.3,5.00,0.00,21.6,22.4,00.0,30.3,23.5,05.9,0000.0,0001.70,0001.11,0000.90
2023-01-26 15:58:00,,0828.3,4.98,0.00,21.6,21.7,00.0,30.3,23.4,05.9,0000.0,0001.58,0001.06,0000.88
2023-01-26 15:59:00,,0828.3,5.02,0.00,21.6,21.1,00.0,30.3,23.3,06.2,0000.0,0001.54,0001.04,0000.87
